DW2494 Weather Reports


time (UTC)temp
F
wind
direction
speed
knots
gust
knots
rain 1hr
in
rain 24hr
in
rain mn
in
humidity
%
barometer
mb
20260507114326 40 5 0.0 0.0 0.00 0.00 0.00 91 1016.9
20260507113819 40 5 0.0 0.0 0.00 0.00 0.00 91 1016.8
20260507113313 40 5 0.0 0.0 0.00 0.00 0.00 91 1016.7
20260507112827 40 5 0.0 0.0 0.00 0.00 0.00 91 1016.8
20260507112321 40 5 0.0 0.0 0.00 0.00 0.00 91 1016.8
20260507111815 40 5 0.0 0.0 0.00 0.00 0.00 91 1016.7
20260507110830 41 5 0.0 0.0 0.00 0.00 0.00 91 1016.7
20260507110323 41 5 0.0 0.0 0.00 0.00 0.00 91 1016.5
20260507105818 41 5 0.0 0.0 0.00 0.00 0.00 91 1016.5
20260507105312 40 92 0.0 0.0 0.00 0.00 0.00 91 1016.4
20260507104826 40 94 0.0 0.0 0.00 0.00 0.00 91 1016.6
20260507104319 41 94 0.0 0.0 0.00 0.00 0.00 91 1016.6
20260507103814 41 94 0.0 0.0 0.00 0.00 0.00 90 1016.6
20260507102828 41 98 0.0 0.0 0.00 0.00 0.00 91 1016.5
20260507102323 41 98 0.0 0.9 0.00 0.00 0.00 91 1016.3
20260507101312 41 82 0.0 0.0 0.00 0.00 0.00 90 1016.4
20260507100828 41 82 0.0 0.0 0.00 0.00 0.00 90 1016.5
20260507100323 41 82 0.0 0.0 0.00 0.00 0.00 90 1016.5
20260507095314 42 86 0.0 0.9 0.00 0.00 0.00 90 1016.3
20260507094812 42 86 0.0 1.7 0.00 0.00 0.00 90 1016.4
20260507094327 42 86 0.9 1.7 0.00 0.00 0.00 90 1016.3
20260507093821 42 86 0.0 0.0 0.00 0.00 0.00 90 1016.5
20260507093317 42 86 0.0 1.7 0.00 0.00 0.00 90 1016.6
20260507092830 42 86 0.0 1.7 0.00 0.00 0.00 90 1016.5
20260507092325 42 87 0.9 2.6 0.00 0.00 0.00 90 1016.4
20260507091819 42 87 1.7 2.6 0.00 0.00 0.00 90 1016.2
20260507091318 42 86 0.9 0.9 0.00 0.00 0.00 90 1016.3
20260507090812 42 86 0.0 0.0 0.00 0.00 0.00 90 1016.6
20260507090327 42 86 0.0 0.0 0.00 0.00 0.00 90 1016.7
20260507085821 42 86 0.0 0.0 0.00 0.00 0.00 90 1016.8
20260507085316 42 86 0.0 0.0 0.00 0.00 0.00 90 1016.8
20260507084830 42 86 0.0 0.0 0.00 0.00 0.00 90 1016.8
20260507083820 42 86 0.0 0.9 0.00 0.00 0.00 90 1017.0
20260507082814 42 86 0.9 1.7 0.00 0.00 0.00 90 1016.4
20260507082328 42 86 0.0 0.0 0.00 0.00 0.00 89 1016.6
20260507081823 42 86 0.0 0.0 0.00 0.00 0.00 89 1016.8
20260507081317 42 86 0.0 0.0 0.00 0.00 0.00 89 1017.1
20260507080831 42 86 0.0 0.0 0.00 0.00 0.00 89 1017.0
20260507080326 42 86 0.0 0.0 0.00 0.00 0.00 89 1016.7
20260507075820 42 86 0.0 0.9 0.00 0.00 0.00 89 1016.6
20260507075319 43 86 0.0 0.9 0.00 0.00 0.00 89 1016.6
20260507074815 43 86 0.0 0.9 0.00 0.00 0.00 89 1016.6
20260507074329 43 86 0.0 1.7 0.00 0.00 0.00 89 1016.6
20260507073823 43 86 0.9 1.7 0.00 0.00 0.00 89 1016.6
20260507073318 43 86 0.0 0.0 0.00 0.00 0.00 88 1016.7
20260507072330 43 86 0.0 0.0 0.00 0.00 0.00 88 1016.8
20260507071825 43 86 0.0 0.0 0.00 0.00 0.00 87 1016.8
20260507071323 43 86 0.0 0.9 0.00 0.00 0.00 87 1016.9
20260507070817 43 86 0.0 0.9 0.00 0.00 0.00 86 1016.8
20260507070331 43 86 0.0 0.0 0.00 0.00 0.00 86 1016.9
20260507065826 44 86 0.0 0.0 0.00 0.00 0.00 86 1016.9
20260507065320 44 86 0.0 0.0 0.00 0.00 0.00 85 1016.9
20260507064815 44 86 0.0 0.0 0.00 0.00 0.00 86 1016.8
20260507064328 45 86 0.0 0.9 0.00 0.00 0.00 85 1016.8
20260507063822 45 86 0.0 0.9 0.00 0.00 0.00 85 1016.9
20260507063321 45 86 0.0 0.9 0.00 0.00 0.00 85 1016.8
20260507062815 45 86 0.0 0.9 0.00 0.00 0.00 85 1016.6
20260507062330 45 86 0.0 0.9 0.00 0.00 0.00 84 1016.5
20260507061825 45 86 0.0 1.7 0.00 0.00 0.00 84 1016.7
20260507060816 45 86 0.9 1.7 0.00 0.00 0.00 85 1016.7
20260507060330 45 86 0.9 1.7 0.00 0.00 0.00 85 1016.8
20260507055825 45 86 0.0 1.7 0.00 0.00 0.00 84 1016.8
20260507055323 45 86 0.9 1.7 0.00 0.00 0.00 84 1016.7
20260507054817 46 349 0.0 1.7 0.00 0.00 0.00 83 1016.7
20260507054331 46 349 0.9 2.6 0.00 0.00 0.00 82 1016.8
20260507053826 46 355 1.7 2.6 0.00 0.00 0.00 82 1016.7
20260507053320 47 9 0.0 2.6 0.00 0.00 0.00 82 1016.6
20260507052813 47 9 0.9 2.6 0.00 0.00 0.00 83 1016.6
20260507052328 47 15 0.9 2.6 0.00 0.00 0.00 83 1016.5
20260507051826 47 99 0.0 2.6 0.00 0.00 0.00 84 1016.4
20260507050818 46 35 0.9 2.6 0.00 0.00 0.00 85 1016.4
20260507050332 46 5 0.0 1.7 0.00 0.00 0.00 85 1016.4
20260507045825 46 5 0.0 0.0 0.00 0.00 0.00 86 1016.5
20260507045320 46 5 0.0 0.9 0.00 0.00 0.00 86 1016.5
20260507044814 46 5 0.0 0.9 0.00 0.00 0.00 86 1016.6
20260507044329 46 5 0.0 0.9 0.00 0.00 0.00 85 1016.6
20260507043828 46 5 0.0 0.0 0.00 0.00 0.00 85 1016.6
20260507043322 46 5 0.0 0.0 0.00 0.00 0.00 84 1016.6
20260507042816 46 5 0.0 0.0 0.00 0.00 0.00 83 1016.6
20260507041828 47 5 0.0 0.0 0.00 0.00 0.00 83 1016.6
20260507040819 48 5 0.0 0.0 0.00 0.00 0.00 82 1016.5
20260507040314 48 5 0.0 0.0 0.00 0.00 0.00 81 1016.4
20260507035812 48 5 0.0 0.0 0.00 0.00 0.00 80 1016.3
20260507035326 49 5 0.0 0.0 0.00 0.00 0.00 78 1016.3
20260507034820 49 5 0.0 0.0 0.00 0.00 0.00 77 1016.4
20260507034314 49 5 0.0 0.0 0.00 0.00 0.00 76 1016.2
20260507033829 50 5 0.0 0.9 0.00 0.00 0.00 75 1016.1
20260507033324 50 5 0.0 0.9 0.00 0.00 0.00 75 1015.9
20260507032819 50 5 0.0 0.9 0.00 0.00 0.00 74 1015.9
20260507032314 51 5 0.0 1.7 0.00 0.00 0.00 73 1015.9
20260507031812 51 5 0.0 1.7 0.00 0.00 0.00 72 1015.9
20260507031326 52 5 0.9 1.7 0.00 0.00 0.00 71 1016.0
20260507030821 52 5 0.0 1.7 0.00 0.00 0.00 71 1016.1
20260507025813 53 5 1.7 3.5 0.00 0.00 0.00 70 1015.9
20260507024321 53 355 1.7 3.5 0.00 0.00 0.00 69 1015.9
20260507023316 53 11 2.6 3.5 0.00 0.00 0.00 68 1015.7
20260507022830 54 355 1.7 3.5 0.00 0.00 0.00 68 1015.6
20260507022325 54 360 1.7 3.5 0.00 0.00 0.00 67 1015.6
20260507021820 54 5 1.7 3.5 0.00 0.00 0.00 67 1015.6
20260507020811 55 355 1.7 4.3 0.00 0.00 0.00 66 1015.5
20260507020325 55 15 2.6 4.3 0.00 0.00 0.00 66 1015.4
20260507015819 55 9 2.6 3.5 0.00 0.00 0.00 66 1015.3
20260507015316 55 360 1.7 3.5 0.00 0.00 0.00 66 1015.2
20260507014829 55 350 2.6 3.5 0.00 0.00 0.00 65 1015.2
20260507014324 55 10 0.9 2.6 0.00 0.00 0.00 65 1015.0
20260507013340 56 13 0.9 2.6 0.00 0.00 0.00 65 1014.9
20260507012814 56 14 1.7 2.6 0.00 0.00 0.00 64 1014.9
20260507012329 56 24 1.7 2.6 0.00 0.00 0.00 63 1014.8
20260507011323 57 30 1.7 3.5 0.00 0.00 0.00 60 1014.8
20260507005910 59 20 3.5 5.2 0.00 0.00 0.00 58 1014.7
20260507002831 61 26 3.5 8.7 0.00 0.00 0.00 54 1014.3
20260507002406 62 21 6.1 8.7 0.00 0.00 0.00 53 1014.3
20260507001820 62 39 4.3 9.6 0.00 0.00 0.00 53 1014.2
20260506234318 63 38 6.1 10.4 0.00 0.00 0.00 50 1014.1
20260506233833 63 31 5.2 9.6 0.00 0.00 0.00 50 1014.2
20260506233348 64 31 7.0 9.6 0.00 0.00 0.00 50 1014.1
20260506232842 64 30 6.1 8.7 0.00 0.00 0.00 50 1014.1
20260506231820 64 30 5.2 11.3 0.00 0.00 0.00 51 1013.9
20260506231318 64 25 7.8 11.3 0.00 0.00 0.00 51 1013.8
20260506230335 64 35 5.2 13.0 0.00 0.00 0.00 52 1013.7
20260506225830 64 355 8.7 13.0 0.00 0.00 0.00 51 1013.6
20260506225344 64 16 7.8 13.0 0.00 0.00 0.00 50 1013.5
20260506222816 64 31 6.1 12.2 0.00 0.00 0.00 54 1013.3
20260506222329 64 41 7.8 11.3 0.00 0.00 0.00 51 1013.3
20260506221823 63 31 8.7 11.3 0.00 0.00 0.00 53 1013.3
20260506221319 64 339 6.1 14.8 0.00 0.00 0.00 54 1013.2
20260506220830 64 24 9.6 14.8 0.00 0.00 0.00 51 1013.1
20260506215317 63 49 7.8 10.4 0.00 0.00 0.00 56 1013.0
20260506214815 63 34 7.8 13.9 0.00 0.00 0.00 53 1013.2
20260506214330 64 9 8.7 13.9 0.00 0.00 0.00 53 1013.2
20260506213824 65 19 7.0 12.2 0.00 0.00 0.00 53 1013.3
20260506213319 64 59 7.0 11.3 0.00 0.00 0.00 55 1013.2
20260506212813 64 350 7.0 12.2 0.00 0.00 0.00 54 1013.3
20260506212327 64 65 7.8 12.2 0.00 0.00 0.00 53 1013.3
20260506211822 64 355 6.1 11.3 0.00 0.00 0.00 53 1013.4
20260506211317 64 13 7.8 13.0 0.00 0.00 0.00 53 1013.6
20260506210814 64 33 9.6 13.0 0.00 0.00 0.00 52 1013.5
20260506210328 64 60 7.0 13.0 0.00 0.00 0.00 56 1013.7
20260506205823 64 40 8.7 13.0 0.00 0.00 0.00 55 1013.9
20260506205317 63 53 4.3 10.4 0.00 0.00 0.00 58 1013.9
20260506204813 62 39 6.1 13.9 0.00 0.00 0.00 56 1014.0
20260506204327 63 55 8.7 13.0 0.00 0.00 0.00 55 1014.0
20260506203821 63 76 7.0 11.3 0.00 0.00 0.00 55 1014.0
20260506203320 64 28 6.1 13.0 0.00 0.00 0.00 58 1014.0
20260506202814 63 355 9.6 13.0 0.00 0.00 0.00 58 1014.0
20260506202329 63 36 7.8 12.2 0.00 0.00 0.00 56 1014.0
20260506201824 63 17 5.2 10.4 0.00 0.00 0.00 58 1014.0
20260506201319 63 22 6.1 11.3 0.00 0.00 0.00 57 1014.2
20260506200813 63 68 7.0 12.2 0.00 0.00 0.00 57 1014.3
20260506200327 64 31 7.8 12.2 0.00 0.00 0.00 56 1014.3
20260506195821 64 20 7.8 13.9 0.00 0.00 0.00 54 1014.3
20260506194815 63 38 8.7 13.0 0.00 0.00 0.00 58 1014.3
20260506194330 64 348 7.8 13.0 0.00 0.00 0.00 57 1014.3
20260506193824 63 55 7.0 12.2 0.00 0.00 0.00 58 1014.2
20260506193318 63 48 7.0 13.0 0.00 0.00 0.00 56 1014.5
20260506192328 63 54 7.0 11.3 0.00 0.00 0.00 56 1014.8
20260506191823 64 68 5.2 11.3 0.00 0.00 0.00 54 1014.8
20260506191320 64 46 6.1 13.0 0.00 0.00 0.00 59 1014.8
20260506190814 64 68 5.2 12.2 0.00 0.00 0.00 55 1014.7
20260506185825 63 5 3.5 12.2 0.00 0.00 0.00 59 1014.7
20260506185319 63 29 7.0 12.2 0.00 0.00 0.00 57 1014.7
20260506184813 62 94 5.2 8.7 0.00 0.00 0.00 61 1014.8
20260506184327 62 46 6.1 8.7 0.00 0.00 0.00 58 1015.0
20260506183822 62 54 3.5 11.3 0.00 0.00 0.00 56 1015.0
20260506183321 62 15 7.0 12.2 0.00 0.00 0.00 61 1015.0
20260506182331 62 44 4.3 9.6 0.00 0.00 0.00 61 1015.2
20260506181323 61 12 8.7 11.3 0.00 0.00 0.00 59 1015.2
20260506175830 62 75 7.0 13.9 0.00 0.00 0.00 58 1015.5
20260506175325 61 51 7.8 13.9 0.00 0.00 0.00 63 1015.7
20260506174819 62 58 5.2 12.2 0.00 0.00 0.00 59 1015.9
20260506174318 62 52 4.3 12.2 0.00 0.00 0.00 61 1015.9
20260506173812 62 44 5.2 10.4 0.00 0.00 0.00 59 1016.1
20260506172823 61 92 5.2 9.6 0.00 0.00 0.00 60 1016.4
20260506172319 61 13 5.2 13.9 0.00 0.00 0.00 60 1016.5
20260506171813 61 49 8.7 13.9 0.00 0.00 0.00 60 1016.6
20260506171328 60 67 7.8 13.0 0.00 0.00 0.00 60 1016.7
20260506170821 60 78 7.0 13.0 0.00 0.00 0.00 59 1016.8
20260506170318 60 71 7.0 12.2 0.00 0.00 0.00 60 1016.8
20260506165813 60 56 6.1 11.3 0.00 0.00 0.00 61 1016.7
20260506165328 60 68 7.0 13.0 0.00 0.00 0.00 62 1016.6
20260506164822 60 30 7.0 13.0 0.00 0.00 0.00 61 1016.7
20260506164316 60 102 6.1 12.2 0.00 0.00 0.00 60 1016.4
20260506163830 59 61 7.0 14.8 0.00 0.00 0.00 60 1016.4
20260506163325 59 58 8.7 14.8 0.00 0.00 0.00 59 1016.5
20260506162823 60 53 7.8 13.9 0.00 0.00 0.00 60 1016.5
20260506161814 59 39 6.1 13.9 0.00 0.00 0.00 62 1016.5
20260506161329 59 59 7.8 13.9 0.00 0.00 0.00 61 1016.3
20260506160320 59 38 7.8 13.0 0.00 0.00 0.00 61 1016.0
20260506155814 58 57 7.8 13.0 0.00 0.00 0.00 63 1015.9
20260506155329 58 63 7.0 12.2 0.00 0.00 0.00 62 1015.8
20260506154823 58 73 7.0 13.0 0.00 0.00 0.00 63 1015.5
20260506153818 58 60 9.6 14.8 0.00 0.00 0.00 63 1015.0
20260506153312 57 47 7.8 12.2 0.00 0.00 0.00 66 1014.9
20260506152827 56 57 9.6 13.9 0.00 0.00 0.00 64 1015.0
20260506151817 57 63 9.6 16.5 0.00 0.00 0.00 65 1014.7
20260506150828 56 45 7.0 13.0 0.00 0.00 0.00 67 1015.3
20260506150322 56 47 7.0 13.9 0.00 0.00 0.00 67 1015.2
20260506145317 55 44 7.8 12.2 0.00 0.00 0.00 67 1015.2
20260506144831 55 61 7.8 11.3 0.00 0.00 0.00 68 1015.1
20260506144326 54 26 7.0 13.0 0.00 0.00 0.00 68 1015.0
20260506143820 54 70 8.7 13.9 0.00 0.00 0.00 67 1014.8
20260506142326 53 47 9.6 14.8 0.00 0.00 0.00 71 1014.9
20260506141821 53 76 7.8 13.9 0.00 0.00 0.00 73 1014.8
20260506141320 53 52 6.1 12.2 0.00 0.00 0.00 74 1014.9
20260506140813 53 45 7.8 13.0 0.00 0.00 0.00 73 1014.9
20260506140328 52 74 6.1 11.3 0.00 0.00 0.00 73 1014.9
20260506135320 51 74 8.7 16.5 0.00 0.00 0.00 75 1015.0
20260506134814 51 70 9.6 17.4 0.00 0.00 0.00 75 1014.9
20260506134328 51 77 8.7 17.4 0.00 0.00 0.00 77 1015.0
20260506133323 50 76 7.0 13.0 0.00 0.00 0.00 79 1015.2
20260506132818 50 40 9.6 15.6 0.00 0.00 0.00 78 1015.3
20260506132313 50 5 11.3 15.6 0.00 0.00 0.00 79 1015.3
20260506131828 50 45 9.6 14.8 0.00 0.00 0.00 80 1015.0
20260506131322 50 69 9.6 13.0 0.00 0.00 0.00 81 1014.9
20260506130816 50 42 8.7 13.9 0.00 0.00 0.00 81 1015.1
20260506130331 50 61 7.8 13.9 0.00 0.00 0.00 82 1015.2
20260506125825 50 24 7.8 12.2 0.00 0.00 0.00 82 1015.2
20260506125323 49 23 7.8 13.0 0.00 0.00 0.00 83 1015.3
20260506124818 49 28 7.0 13.9 0.00 0.00 0.00 82 1015.1
20260506123829 49 49 8.7 14.8 0.00 0.00 0.00 83 1014.8
20260506123323 49 36 11.3 13.9 0.00 0.00 0.00 83 1014.6
20260506122818 49 60 7.0 13.0 0.00 0.00 0.00 84 1014.6
20260506122332 49 28 7.0 14.8 0.00 0.00 0.00 84 1014.5
20260506121826 49 42 8.7 14.8 0.00 0.00 0.00 84 1014.2
20260506121325 49 30 9.6 13.9 0.00 0.00 0.00 84 1014.4
20260506120819 49 11 8.7 13.0 0.00 0.00 0.00 84 1014.5
20260506120314 49 360 7.0 12.2 0.00 0.00 0.00 84 1014.5
20260506115827 49 41 6.1 11.3 0.00 0.00 0.00 84 1014.5
20260506115322 49 25 6.1 12.2 0.00 0.00 0.00 84 1014.4